When you browse on this site, cookies collect data to enhance your experience and personalize the content and advertising you see.
Visit our Privacy Policy to learn more. By continuing to use the site, you agree to this use of cookies and data.
  • In Sweden
  • List of Countries
  • For 7 days
  • Water Temperature
  • Weather Map
  • Weather Widgets
  • user-avatar
    Login

    Hourly Weather Agra

    Today, 28 May, Thursday

    Time Temperature Precipitation Wind Pressure Humidity
    00:00 +38°C° 0 mm 2 mps 733 mmHg 13%
    01:00 +37°C° 0 mm 3 mps 733 mmHg 15%
    02:00 +36°C° 0 mm 4 mps 733 mmHg 17%
    03:00 +35°C° 0 mm 4 mps 733 mmHg 27%
    04:00 +34°C° 0 mm 3 mps 734 mmHg 37%
    05:00 +33°C° 0 mm 3 mps 734 mmHg 47%
    06:00 +34°C° 0 mm 3 mps 735 mmHg 43%
    07:00 +36°C° 0 mm 3 mps 735 mmHg 38%
    08:00 +38°C° 0 mm 3 mps 736 mmHg 33%
    09:00 +41°C° 0 mm 2 mps 736 mmHg 27%
    10:00 +43°C° 0 mm 2 mps 736 mmHg 21%
    11:00 +46°C° 0 mm 1 mps 735 mmHg 14%
    12:00 +48°C° 0 mm 2 mps 734 mmHg 12%
    13:00 +48°C° 0 mm 3 mps 733 mmHg 10%
    14:00 +50°C° 0 mm 4 mps 732 mmHg 9%
    15:00 +50°C° 0 mm 5 mps 732 mmHg 8%
    16:00 +50°C° 0 mm 5 mps 731 mmHg 7%
    17:00 +51°C° 0 mm 6 mps 731 mmHg 6%
    18:00 +47°C° 0 mm 5 mps 731 mmHg 9%
    19:00 +43°C° 0 mm 4 mps 732 mmHg 12%
    20:00 +40°C° 0 mm 3 mps 732 mmHg 15%
    21:00 +39°C° 0 mm 3 mps 733 mmHg 16%
    22:00 +38°C° 0 mm 3 mps 733 mmHg 17%
    23:00 +38°C° 0 mm 3 mps 733 mmHg 18%

    Tomorrow, 29 May, Friday

    Time Temperature Precipitation Wind Pressure Humidity
    00:00 +37°C° 0 mm 3 mps 733 mmHg 22%
    01:00 +35°C° 0 mm 3 mps 733 mmHg 26%
    02:00 +34°C° 0 mm 4 mps 734 mmHg 30%
    03:00 +34°C° 0.1 mm 3 mps 734 mmHg 31%
    04:00 +32°C° 0.1 mm 2 mps 734 mmHg 33%
    05:00 +32°C° 0.1 mm 2 mps 735 mmHg 35%
    06:00 +34°C° 0.1 mm 2 mps 735 mmHg 35%
    07:00 +35°C° 0.1 mm 3 mps 736 mmHg 34%
    08:00 +37°C° 0.1 mm 4 mps 737 mmHg 34%
    09:00 +39°C° 0 mm 3 mps 737 mmHg 28%
    10:00 +42°C° 0 mm 2 mps 736 mmHg 22%
    11:00 +45°C° 0 mm 1 mps 736 mmHg 16%
    12:00 +45°C° 0 mm 1 mps 735 mmHg 14%
    13:00 +47°C° 0 mm 2 mps 735 mmHg 12%
    14:00 +48°C° 0 mm 2 mps 734 mmHg 10%
    15:00 +48°C° 0 mm 3 mps 733 mmHg 10%
    16:00 +49°C° 0 mm 4 mps 733 mmHg 9%
    17:00 +48°C° 0 mm 5 mps 732 mmHg 9%
    18:00 +47°C° 0 mm 4 mps 733 mmHg 11%
    19:00 +44°C° 0 mm 3 mps 733 mmHg 12%
    20:00 +41°C° 0 mm 2 mps 733 mmHg 14%
    21:00 +40°C° 0 mm 2 mps 734 mmHg 15%
    22:00 +39°C° 0 mm 2 mps 734 mmHg 17%
    23:00 +38°C° 0 mm 3 mps 735 mmHg 19%

    Day after tomorrow, 30 May, Saturday

    Time Temperature Precipitation Wind Pressure Humidity
    00:00 +37°C° 0 mm 3 mps 735 mmHg 22%
    01:00 +36°C° 0 mm 3 mps 735 mmHg 25%
    02:00 +35°C° 0 mm 4 mps 735 mmHg 28%
    03:00 +34°C° 0 mm 3 mps 736 mmHg 31%
    04:00 +33°C° 0 mm 3 mps 736 mmHg 35%
    05:00 +32°C° 0 mm 2 mps 737 mmHg 38%
    06:00 +34°C° 0 mm 2 mps 737 mmHg 34%
    07:00 +36°C° 0 mm 2 mps 738 mmHg 30%
    08:00 +37°C° 0 mm 1 mps 739 mmHg 26%
    09:00 +40°C° 0 mm 1 mps 739 mmHg 22%
    10:00 +42°C° 0 mm 1 mps 739 mmHg 19%
    11:00 +44°C° 0 mm 1 mps 739 mmHg 16%
    12:00 +45°C° 0 mm 2 mps 738 mmHg 15%
    13:00 +46°C° 0 mm 3 mps 737 mmHg 14%
    14:00 +46°C° 0 mm 3 mps 736 mmHg 14%
    15:00 +47°C° 0 mm 4 mps 736 mmHg 13%
    16:00 +47°C° 0 mm 4 mps 735 mmHg 12%
    17:00 +47°C° 0 mm 5 mps 735 mmHg 12%
    18:00 +44°C° 0 mm 6 mps 735 mmHg 18%
    19:00 +40°C° 0 mm 7 mps 735 mmHg 24%
    20:00 +35°C° 0 mm 7 mps 736 mmHg 31%
    21:00 +35°C° 0 mm 6 mps 736 mmHg 33%
    22:00 +34°C° 0 mm 5 mps 737 mmHg 35%
    23:00 +34°C° 0 mm 3 mps 737 mmHg 38%

    31 May, Sunday

    Time Temperature Precipitation Wind Pressure Humidity
    00:00 +34°C° 0 mm 3 mps 737 mmHg 39%
    01:00 +33°C° 0 mm 3 mps 737 mmHg 40%
    02:00 +33°C° 0 mm 3 mps 737 mmHg 40%
    03:00 +32°C° 0 mm 2 mps 737 mmHg 40%
    04:00 +31°C° 0 mm 2 mps 738 mmHg 40%
    05:00 +31°C° 0 mm 1 mps 738 mmHg 40%
    06:00 +32°C° 0 mm 2 mps 739 mmHg 39%
    07:00 +34°C° 0 mm 4 mps 739 mmHg 37%
    08:00 +35°C° 0 mm 5 mps 739 mmHg 35%
    09:00 +37°C° 0 mm 5 mps 739 mmHg 32%
    10:00 +40°C° 0 mm 4 mps 739 mmHg 28%
    11:00 +42°C° 0 mm 4 mps 739 mmHg 25%
    12:00 +43°C° 0 mm 3 mps 738 mmHg 22%
    13:00 +44°C° 0 mm 3 mps 737 mmHg 19%
    14:00 +46°C° 0 mm 2 mps 736 mmHg 17%
    15:00 +45°C° 0 mm 2 mps 736 mmHg 16%
    16:00 +45°C° 0 mm 2 mps 735 mmHg 15%
    17:00 +45°C° 0 mm 2 mps 735 mmHg 14%
    18:00 +43°C° 0 mm 2 mps 735 mmHg 17%
    19:00 +42°C° 0 mm 3 mps 735 mmHg 19%
    20:00 +41°C° 0 mm 4 mps 736 mmHg 22%
    21:00 +38°C° 0 mm 3 mps 736 mmHg 24%
    22:00 +37°C° 0 mm 3 mps 736 mmHg 27%
    23:00 +36°C° 0 mm 3 mps 737 mmHg 29%

    1 June, Monday

    Time Temperature Precipitation Wind Pressure Humidity
    00:00 +36°C° 0 mm 2 mps 737 mmHg 30%
    01:00 +36°C° 0 mm 2 mps 737 mmHg 31%
    02:00 +34°C° 0 mm 1 mps 737 mmHg 32%
    03:00 +35°C° 0 mm 2 mps 737 mmHg 33%
    04:00 +34°C° 0 mm 2 mps 737 mmHg 35%
    05:00 +34°C° 0 mm 2 mps 737 mmHg 36%
    06:00 +35°C° 0 mm 2 mps 738 mmHg 34%
    07:00 +37°C° 0 mm 2 mps 738 mmHg 31%
    08:00 +38°C° 0 mm 2 mps 739 mmHg 28%
    09:00 +40°C° 0 mm 2 mps 739 mmHg 26%
    10:00 +42°C° 0 mm 3 mps 739 mmHg 23%
    11:00 +44°C° 0 mm 3 mps 739 mmHg 20%
    12:00 +44°C° 0 mm 3 mps 738 mmHg 19%
    13:00 +45°C° 0 mm 4 mps 738 mmHg 18%
    14:00 +46°C° 0 mm 5 mps 737 mmHg 17%
    15:00 +46°C° 0 mm 5 mps 736 mmHg 17%
    16:00 +45°C° 0 mm 5 mps 736 mmHg 18%
    17:00 +45°C° 0 mm 5 mps 736 mmHg 18%
    18:00 +42°C° 0 mm 5 mps 736 mmHg 23%
    19:00 +40°C° 0 mm 4 mps 736 mmHg 27%
    20:00 +37°C° 0 mm 4 mps 737 mmHg 32%
    21:00 +36°C° 0 mm 3 mps 737 mmHg 34%
    22:00 +35°C° 0 mm 2 mps 738 mmHg 36%
    23:00 +34°C° 0 mm 1 mps 738 mmHg 38%

    2 June, Tuesday

    Time Temperature Precipitation Wind Pressure Humidity
    00:00 +34°C° 0 mm 2 mps 738 mmHg 37%
    01:00 +34°C° 0 mm 2 mps 737 mmHg 37%
    02:00 +34°C° 0 mm 3 mps 737 mmHg 36%
    03:00 +34°C° 0 mm 3 mps 737 mmHg 37%
    04:00 +34°C° 0 mm 3 mps 737 mmHg 38%
    05:00 +33°C° 0 mm 3 mps 737 mmHg 39%
    06:00 +35°C° 0 mm 4 mps 738 mmHg 36%
    07:00 +37°C° 0 mm 4 mps 738 mmHg 32%
    08:00 +40°C° 0 mm 5 mps 739 mmHg 28%
    09:00 +42°C° 0 mm 4 mps 739 mmHg 24%
    10:00 +43°C° 0 mm 4 mps 738 mmHg 21%
    11:00 +45°C° 0 mm 4 mps 738 mmHg 17%
    12:00 +45°C° 0 mm 4 mps 738 mmHg 17%
    13:00 +45°C° 0 mm 4 mps 737 mmHg 16%
    14:00 +45°C° 0 mm 4 mps 736 mmHg 16%
    15:00 +45°C° 0 mm 4 mps 736 mmHg 16%
    16:00 +44°C° 0 mm 3 mps 735 mmHg 17%
    17:00 +44°C° 0 mm 3 mps 735 mmHg 17%
    18:00 +42°C° 0 mm 3 mps 735 mmHg 19%
    19:00 +40°C° 0 mm 2 mps 736 mmHg 20%
    20:00 +39°C° 0 mm 2 mps 736 mmHg 21%
    21:00 +38°C° 0 mm 2 mps 736 mmHg 22%
    22:00 +38°C° 0 mm 3 mps 736 mmHg 23%
    23:00 +38°C° 0 mm 4 mps 737 mmHg 24%
    Show more